EA3CIU-1 Weather Reports


time (UTC)temp
C
wind
direction
speed
KPH
gust
KPH
rain 1hr
cm
rain 24hr
cm
rain mn
cm
humidity
%
barometer
mb
20260507201706 15 166 0.0 0.0 0.00 0.00 0.00 72 1013.0
20260507200707 15 166 0.0 0.0 0.00 0.00 0.00 71 1013.0
20260507200206 15 166 0.0 6.4 0.00 0.00 0.00 71 1013.0
20260507195705 15 154 0.0 6.4 0.00 0.00 0.00 70 1012.0
20260507195206 15 165 0.0 6.4 0.00 0.00 0.00 70 1012.0
20260507194706 16 153 4.8 6.4 0.00 0.00 0.00 69 1012.0
20260507194206 16 167 0.0 6.4 0.00 0.00 0.00 68 1012.0
20260507193206 16 149 0.0 6.4 0.00 0.00 0.00 67 1012.0
20260507192707 16 153 3.2 4.8 0.00 0.00 0.00 67
20260507192206 16 101 0.0 4.8 0.00 0.00 0.00 67 1012.0
20260507191206 16 178 0.0 6.4 0.00 0.00 0.00 68 1012.0
20260507190707 16 142 0.0 6.4 0.00 0.00 0.00 68
20260507190207 16 139 0.0 6.4 0.00 0.00 0.00 69 1012.0
20260507185705 16 131 3.2 6.4 0.00 0.00 0.00 69 1012.0
20260507185206 16 174 0.0 8.0 0.00 0.00 0.00 69 1012.0
20260507184207 16 146 0.0 8.0 0.00 0.00 0.00 70 1012.0
20260507183705 16 179 0.0 6.4 0.00 0.00 0.00 69
20260507183206 16 172 4.8 8.0 0.00 0.00 0.00 69 1012.0
20260507182706 16 114 4.8 9.7 0.00 0.00 0.00 69 1011.0
20260507181705 16 163 6.4 9.7 0.00 0.00 0.00 69 1011.0
20260507181206 16 162 4.8 9.7 0.00 0.00 0.00 69 1011.0
20260507180707 16 103 6.4 12.9 0.00 0.00 0.00 69 1011.0
20260507180207 16 140 8.0 12.9 0.00 0.00 0.00 69 1011.0
20260507175706 16 150 6.4 12.9 0.00 0.00 0.00 68 1011.0
20260507174706 16 166 6.4 12.9 0.00 0.00 0.00 67 1011.0
20260507174206 17 147 4.8 9.7 0.00 0.00 0.00 66 1011.0
20260507173706 17 147 6.4 9.7 0.00 0.00 0.00 65 1011.0
20260507173206 17 137 4.8 9.7 0.00 0.00 0.00 64 1011.0
20260507172707 17 158 6.4 12.9 0.00 0.00 0.00 65 1011.0
20260507172206 17 173 0.0 12.9 0.00 0.00 0.00 66 1011.0
20260507171706 17 151 4.8 12.9 0.00 0.00 0.00 66 1011.0
20260507171206 17 144 6.4 9.7 0.00 0.00 0.00 65 1011.0
20260507170706 17 144 6.4 9.7 0.00 0.00 0.00 64 1011.0
20260507170207 17 145 6.4 9.7 0.00 0.00 0.00 63 1011.0
20260507165705 17 104 6.4 9.7 0.00 0.00 0.00 63 1011.0
20260507165206 17 144 6.4 12.9 0.00 0.00 0.00 63 1011.0
20260507164706 17 168 6.4 12.9 0.00 0.00 0.00 63
20260507164207 17 146 8.0 12.9 0.00 0.00 0.00 62 1011.0
20260507163707 17 170 6.4 12.9 0.00 0.00 0.00 62 1011.0
20260507162706 17 153 6.4 9.7 0.00 0.00 0.00 61 1011.0
20260507162206 17 144 6.4 9.7 0.00 0.00 0.00 61 1011.0
20260507161705 17 158 8.0 12.9 0.00 0.00 0.00 61 1011.0
20260507161205 17 130 6.4 12.9 0.00 0.00 0.00 60 1011.0
20260507160706 17 172 6.4 12.9 0.00 0.00 0.00 60 1011.0
20260507160208 17 119 6.4 12.9 0.00 0.00 0.00 59 1011.0
20260507155705 17 109 8.0 12.9 0.00 0.00 0.00 59 1011.0
20260507155206 17 158 8.0 12.9 0.00 0.00 0.00 59 1011.0
20260507154707 17 181 8.0 14.5 0.00 0.00 0.00 58 1011.0
20260507154208 17 163 9.7 14.5 0.00 0.00 0.00 59 1011.0
20260507153206 18 157 6.4 17.7 0.00 0.00 0.00 56 1011.0
20260507152705 18 103 6.4 17.7 0.00 0.00 0.00 56 1011.0
20260507152205 18 169 6.4 12.9 0.00 0.00 0.00 55 1011.0
20260507151705 18 143 6.4 12.9 0.00 0.00 0.00 55 1011.0
20260507151206 18 177 6.4 12.9 0.00 0.00 0.00 55 1011.0
20260507150706 18 149 6.4 12.9 0.00 0.00 0.00 54 1011.0
20260507150206 18 173 8.0 9.7 0.00 0.00 0.00 54 1011.0
20260507145706 18 164 6.4 9.7 0.00 0.00 0.00 54 1011.0
20260507144706 18 128 0.0 12.9 0.00 0.00 0.00 53 1011.0
20260507144208 18 151 0.0 12.9 0.00 0.00 0.00 54 1011.0
20260507143205 18 148 6.4 12.9 0.00 0.00 0.00 54 1011.0
20260507142706 18 120 4.8 12.9 0.00 0.00 0.00 53 1011.0
20260507142205 18 159 4.8 9.7 0.00 0.00 0.00 53 1011.0
20260507141705 18 159 3.2 12.9 0.00 0.00 0.00 53 1011.0
20260507141206 18 184 4.8 12.9 0.00 0.00 0.00 54 1011.0
20260507140707 18 129 8.0 12.9 0.00 0.00 0.00 54 1011.0
20260507140207 18 162 8.0 16.1 0.00 0.00 0.00 54 1011.0
20260507135206 18 145 8.0 16.1 0.00 0.00 0.00 54 1011.0
20260507134705 18 153 6.4 17.7 0.00 0.00 0.00 55 1011.0
20260507133705 18 143 9.7 17.7 0.00 0.00 0.00 54 1012.0
20260507133206 18 138 11.3 17.7 0.00 0.00 0.00 54 1012.0
20260507132705 18 187 8.0 17.7 0.00 0.00 0.00 55 1012.0
20260507132206 18 106 9.7 12.9 0.00 0.00 0.00 55 1012.0
20260507131705 19 0 6.4 12.9 0.00 0.00 0.00 55 1012.0
20260507131206 18 155 6.4 14.5 0.00 0.00 0.00 55 1012.0
20260507130207 18 180 8.0 17.7 0.00 0.00 0.00 56 1012.0
20260507125706 18 156 8.0 17.7 0.00 0.00 0.00 57 1012.0
20260507125206 18 141 8.0 16.1 0.00 0.00 0.00 56
20260507124706 18 146 8.0 16.1 0.00 0.00 0.00 57
20260507124205 18 189 8.0 14.5 0.00 0.00 0.00 57 1012.0
20260507123706 18 142 9.7 14.5 0.00 0.00 0.00 57
20260507123205 18 124 11.3 14.5 0.00 0.00 0.00 57
20260507122706 19 145 6.4 19.3 0.00 0.00 0.00 56 1012.0
20260507122208 19 160 6.4 19.3 0.00 0.00 0.00 56 1012.0
20260507121706 18 123 6.4 19.3 0.00 0.00 0.00 57 1012.0
20260507121206 18 129 6.4 14.5 0.00 0.00 0.00 57 1012.0
20260507120707 19 145 8.0 16.1 0.00 0.00 0.00 57 1012.0
20260507120206 18 129 8.0 16.1 0.00 0.00 0.00 57 1012.0
20260507115206 19 120 6.4 14.5 0.00 0.00 0.00 56 1012.0
20260507114705 19 80 9.7 14.5 0.00 0.00 0.00 57 1012.0
20260507113707 19 101 6.4 12.9 0.00 0.00 0.00 57 1012.0
20260507113206 19 118 6.4 12.9 0.00 0.00 0.00 56 1012.0
20260507112706 19 141 0.0 12.9 0.00 0.00 0.00 57 1012.0
20260507112206 18 168 6.4 14.5 0.00 0.00 0.00 58 1012.0
20260507111705 18 154 8.0 14.5 0.00 0.00 0.00 57 1012.0
20260507111206 18 148 8.0 14.5 0.00 0.00 0.00 57 1013.0
20260507110706 19 149 9.7 14.5 0.00 0.00 0.00 57 1013.0
20260507110206 18 152 4.8 14.5 0.00 0.00 0.00 58 1013.0
20260507105706 18 168 9.7 12.9 0.00 0.00 0.00 59 1013.0
20260507105206 19 116 6.4 17.7 0.00 0.00 0.00 58 1013.0
20260507104705 18 165 4.8 17.7 0.00 0.00 0.00 59 1013.0
20260507104207 19 120 9.7 17.7 0.00 0.00 0.00 59 1013.0
20260507103206 18 155 8.0 12.9 0.00 0.00 0.00 59 1013.0
20260507102706 18 120 4.8 12.9 0.00 0.00 0.00 60 1013.0
20260507102206 18 153 4.8 12.9 0.00 0.00 0.00 59 1013.0
20260507101705 19 169 3.2 12.9 0.00 0.00 0.00 59 1013.0
20260507101206 19 154 3.2 9.7 0.00 0.00 0.00 60 1013.0
20260507100706 18 122 6.4 9.7 0.00 0.00 0.00 61 1013.0
20260507100207 18 182 3.2 8.0 0.00 0.00 0.00 60 1013.0
20260507095206 18 312 0.0 9.7 0.00 0.00 0.00 63 1013.0
20260507094706 17 165 4.8 9.7 0.00 0.00 0.00 64 1013.0
20260507094206 17 130 4.8 9.7 0.00 0.00 0.00 65 1013.0
20260507093705 17 164 6.4 9.7 0.00 0.00 0.00 66 1013.0
20260507093207 17 120 3.2 9.7 0.00 0.00 0.00 66 1013.0
20260507092706 17 89 3.2 9.7 0.00 0.00 0.00 65 1013.0
20260507092206 16 138 0.0 9.7 0.00 0.00 0.00 68 1013.0
20260507091705 17 126 6.4 9.7 0.00 0.00 0.00 67 1013.0
20260507091206 17 154 6.4 8.0 0.00 0.00 0.00 67 1013.0
20260507090706 17 136 3.2 8.0 0.00 0.00 0.00 67 1013.0
20260507090206 17 149 0.0 8.0 0.00 0.00 0.00 67 1013.0
20260507085708 17 160 6.4 8.0 0.00 0.00 0.00 67 1013.0
20260507084707 17 151 0.0 8.0 0.00 0.00 0.00 67 1013.0
20260507084206 17 163 6.4 8.0 0.00 0.00 0.00 67 1013.0
20260507083706 17 147 0.0 8.0 0.00 0.00 0.00 67 1013.0
20260507083208 17 151 4.8 6.4 0.00 0.00 0.00 68 1013.0
20260507082706 17 179 0.0 6.4 0.00 0.00 0.00 70 1013.0
20260507082205 16 176 0.0 6.4 0.00 0.00 0.00 71 1013.0
20260507081207 16 140 4.8 6.4 0.00 0.00 0.00 72 1013.0
20260507080707 15 162 0.0 6.4 0.00 0.00 0.00 73 1013.0
20260507080208 15 141 0.0 4.8 0.00 0.00 0.00 73 1013.0
20260507075706 15 132 0.0 8.0 0.00 0.00 0.00 73 1013.0
20260507075206 15 179 0.0 8.0 0.00 0.00 0.00 73 1013.0
20260507074706 15 147 0.0 4.8 0.00 0.00 0.00 73 1013.0
20260507073705 14 247 0.0 0.0 0.00 0.00 0.00 76 1013.0
20260507072705 14 270 0.0 0.0 0.00 0.00 0.00 77 1013.0
20260507072207 14 270 0.0 0.0 0.00 0.00 0.00 77 1013.0
20260507071706 14 270 0.0 0.0 0.00 0.00 0.00 78 1013.0
20260507071205 13 270 0.0 0.0 0.00 0.00 0.00 79 1013.0
20260507070706 13 270 0.0 0.0 0.00 0.00 0.00 80 1013.0
20260507065706 13 270 0.0 0.0 0.00 0.00 0.00 81 1013.0
20260507065206 13 270 0.0 0.0 0.00 0.00 0.00 81 1013.0
20260507064707 13 270 0.0 0.0 0.00 0.00 0.00 81 1013.0
20260507064207 13 270 0.0 0.0 0.00 0.00 0.00 81 1013.0
20260507063706 13 270 0.0 0.0 0.00 0.00 0.00 82 1013.0
20260507062706 13 270 0.0 0.0 0.00 0.00 0.00 83 1013.0
20260507062208 13 270 0.0 0.0 0.00 0.00 0.00 84 1013.0
20260507061707 12 270 0.0 0.0 0.00 0.00 0.00 86 1013.0
20260507061207 12 326 0.0 0.0 0.00 0.00 0.00 87 1013.0
20260507060706 11 326 0.0 0.0 0.00 0.00 0.00 87 1013.0
20260507060207 11 326 0.0 0.0 0.00 0.00 0.00 87 1013.0
20260507055707 11 326 0.0 0.0 0.00 0.00 0.00 87 1013.0
20260507055206 11 326 0.0 0.0 0.00 0.00 0.00 87 1013.0
20260507054705 11 326 0.0 0.0 0.00 0.00 0.00 87 1013.0
20260507054207 11 326 0.0 0.0 0.00 0.00 0.00 87 1012.0
20260507053707 11 326 0.0 0.0 0.00 0.00 0.00 88 1012.0
20260507053207 11 326 0.0 6.4 0.00 0.00 0.00 88 1012.0
20260507052706 11 326 0.0 6.4 0.00 0.00 0.00 88 1012.0
20260507051707 11 332 4.8 4.8 0.00 0.00 0.00 88 1012.0
20260507051206 11 307 0.0 6.4 0.00 0.00 0.00 88 1012.0
20260507050706 11 307 0.0 6.4 0.00 0.00 0.00 88 1012.0
20260507050206 11 307 0.0 6.4 0.00 0.00 0.00 88 1012.0
20260507045206 11 305 4.8 6.4 0.00 0.00 0.00 88 1012.0
20260507044205 11 311 3.2 6.4 0.00 0.00 0.00 89 1012.0
20260507043705 11 300 3.2 6.4 0.00 0.00 0.00 89 1012.0
20260507043206 11 308 3.2 6.4 0.00 0.00 0.00 88 1012.0
20260507042707 11 318 0.0 6.4 0.00 0.00 0.00 88 1012.0
20260507042205 11 312 3.2 6.4 0.00 0.00 0.00 88 1012.0
20260507041706 11 306 0.0 6.4 0.00 0.00 0.00 88 1012.0
20260507040706 11 331 0.0 6.4 0.00 0.00 0.00 88 1012.0
20260507040206 11 331 3.2 4.8 0.00 0.00 0.00 88 1012.0
20260507035207 11 320 0.0 6.4 0.00 0.00 0.00 88 1012.0
20260507034706 11 317 4.8 6.4 0.00 0.00 0.00 88 1012.0
20260507034208 11 308 0.0 6.4 0.00 0.00 0.00 88 1012.0
20260507033705 11 308 0.0 6.4 0.00 0.00 0.00 88 1012.0
20260507033206 11 312 0.0 4.8 0.00 0.00 0.00 88 1012.0
20260507032706 11 312 0.0 6.4 0.00 0.00 0.00 88 1012.0
20260507032206 11 313 3.2 6.4 0.00 0.00 0.00 89 1012.0
20260507031705 11 313 0.0 0.0 0.00 0.00 0.00 89 1012.0
20260507031205 11 302 0.0 0.0 0.00 0.00 0.00 89 1012.0
20260507030706 11 302 0.0 4.8 0.00 0.00 0.00 89 1012.0
20260507030207 11 302 0.0 4.8 0.00 0.00 0.00 89 1012.0
20260507025705 11 302 0.0 4.8 0.00 0.00 0.00 89 1012.0
20260507025206 11 302 4.8 4.8 0.00 0.00 0.00 89 1012.0
20260507024707 11 302 0.0 4.8 0.00 0.00 0.00 88 1012.0
20260507024206 11 302 0.0 4.8 0.00 0.00 0.00 88 1012.0
20260507023706 11 302 0.0 0.0 0.00 0.00 0.00 88 1012.0
20260507023206 12 302 0.0 4.8 0.00 0.00 0.00 88 1012.0
20260507022706 12 302 0.0 4.8 0.00 0.00 0.00 88 1012.0
20260507022206 12 302 0.0 4.8 0.00 0.00 0.00 88 1012.0
20260507021207 12 302 0.0 0.0 0.00 0.00 0.00 88 1012.0
20260507020707 12 302 0.0 4.8 0.00 0.00 0.00 88 1012.0
20260507020206 12 302 0.0 4.8 0.00 0.00 0.00 88 1012.0
20260507015705 12 302 0.0 4.8 0.00 0.00 0.00 87 1012.0
20260507015207 12 302 0.0 0.0 0.00 0.00 0.00 88 1012.0
20260507014705 12 302 0.0 0.0 0.00 0.00 0.00 88 1012.0
20260507013706 12 302 0.0 0.0 0.00 0.00 0.00 88 1012.0
20260507013206 12 302 0.0 0.0 0.00 0.00 0.00 88 1012.0
20260507012206 12 302 0.0 0.0 0.00 0.00 0.00 88 1012.0
20260507011705 12 302 0.0 0.0 0.00 0.00 0.00 89 1012.0
20260507011206 12 302 0.0 4.8 0.00 0.00 0.00 89 1012.0
20260507010707 12 302 0.0 4.8 0.00 0.00 0.00 89 1012.0
20260507010206 12 302 0.0 4.8 0.00 0.00 0.00 90 1012.0
20260507005705 12 302 0.0 0.0 0.00 0.00 0.00 90 1013.0
20260507005206 12 302 0.0 4.8 0.00 0.00 0.00 90 1013.0
20260507004206 12 302 0.0 0.0 0.00 0.00 0.00 90 1013.0
20260507003706 12 302 0.0 0.0 0.00 0.00 0.00 90 1013.0
20260507003206 12 302 0.0 4.8 0.00 0.00 0.00 91 1013.0
20260507002707 12 302 0.0 4.8 0.00 0.00 0.00 91 1013.0
20260507002207 12 302 0.0 4.8 0.00 0.00 0.00 90 1013.0
20260507001707 13 302 0.0 4.8 0.00 0.00 0.00 90 1013.0
20260507001205 13 302 0.0 4.8 0.00 0.00 0.00 90 1013.0
20260507000207 12 302 0.0 6.4 0.00 0.00 0.00 90 1013.0
20260506235705 12 302 0.0 6.4 0.00 0.00 0.00 90 1013.0
20260506235207 12 307 0.0 6.4 0.00 0.00 0.00 89 1013.0
20260506234707 13 307 0.0 6.4 0.00 0.00 0.00 90 1013.0
20260506234205 13 307 3.2 6.4 0.00 0.00 0.00 90 1013.0
20260506233207 13 304 0.0 6.4 0.00 0.00 0.00 90 1013.0
20260506232707 13 320 0.0 4.8 0.00 0.00 0.00 89 1013.0
20260506232207 13 298 0.0 3.2 0.00 0.00 0.00 89 1013.0
20260506231705 13 298 0.0 6.4 0.00 0.00 0.00 89 1013.0
20260506231205 13 298 0.0 6.4 0.00 0.00 0.00 89 1013.0
20260506230707 13 298 0.0 8.0 0.00 0.00 0.00 89 1013.0
20260506230207 13 300 0.0 8.0 0.00 0.00 0.00 88 1013.0
20260506225705 13 300 0.0 8.0 0.00 0.00 0.00 88 1013.0
20260506225207 13 306 0.0 6.4 0.00 0.00 0.00 86 1013.0
20260506224705 13 312 0.0 6.4 0.00 0.00 0.00 85 1013.0
20260506224206 13 318 0.0 6.4 0.00 0.00 0.00 84 1013.0
20260506223705 13 318 0.0 6.4 0.00 0.00 0.00 83 1013.0
20260506223206 13 319 0.0 6.4 0.00 0.00 0.00 82 1013.0
20260506222706 13 319 0.0 6.4 0.00 0.00 0.00 81 1013.0
20260506222205 13 319 4.8 4.8 0.00 0.00 0.00 80 1013.0
20260506221706 13 320 0.0 4.8 0.00 0.00 0.00 80 1013.0
20260506221206 13 320 0.0 6.4 0.00 0.00 0.00 80 1013.0
20260506220707 13 320 0.0 6.4 0.00 0.00 0.00 79 1013.0
20260506220206 13 321 4.8 6.4 0.00 0.00 0.00 79 1012.0
20260506215706 13 299 0.0 6.4 0.00 0.00 0.00 79 1012.0
20260506214706 13 300 3.2 6.4 0.00 0.00 0.00 79 1012.0
20260506213706 13 309 4.8 6.4 0.00 0.00 0.00 79 1012.0
20260506213206 13 313 0.0 0.0 0.00 0.00 0.00 77 1012.0
20260506210206 13 313 3.2 4.8 0.00 0.00 0.00 78 1013.0
20260506205705 14 313 0.0 6.4 0.00 0.00 0.00 77 1012.0
20260506205206 14 313 0.0 6.4 0.00 0.00 0.00 77 1012.0
20260506204206 14 300 4.8 0.0 0.00 0.00 0.00 74 1012.0
20260506203705 14 154 0.0 4.8 0.00 0.00 0.00 73 1012.0
20260506203206 14 154 0.0 4.8 0.00 0.00 0.00 72 1012.0
20260506202706 15 144 0.0 4.8 0.00 0.00 0.00 70 1012.0
20260506202207 15 136 4.8 4.8 0.00 0.00 0.00 69 1012.0